Погода в Красном Октябре

Россия / Ярославская область     57°19′29″N   39°00′36″E
темп.,
°C
ветер,
м/с
пор.,
м/с
влажн.,
%
обл.,
%
осадки,
мм/ч
давл.,
гПа
погр.,
м
30 июня, чт
чт3000:00+11сз1274100 0.0 102111
03:00+10сз2369100 0.0 102132
06:00+13сз26713 0.0 1019161
09:00+19сз4651100 0.0 1018754
12:00+22ссз573799 0.0 10171791
15:00+23с683928 0.0 10162116
18:00+22ссв485094 0.0 10161544
21:00+16с366533 0.0 101799
1 июля, пт
пт100:00+11св37720 0.0 1019109
03:00+9св24770 0.0 102174
06:00+11св25715 0.0 1021154
09:00+17св46480 0.0 10221074
12:00+19всв56432 0.0 10221507
15:00+20всв46400 0.0 10221541
18:00+19в34482 0.0 1021847
21:00+14з12680 0.0 102211
2 июля, сб
сб200:00+12зсз227576 0.0 102227
03:00+11зсз227272 0.0 102229
06:00+13зсз376780 0.0 1022189
09:00+18зсз375638 0.0 1021324
12:00+21зсз36539 0.0 1019450
15:00+26сз57432 0.0 10181636
18:00+24зсз485929 0.0 1016474
21:00+20сз34823 0.0 101566
3 июля, вс
вс300:00+16ссз348631 0.0 101668
03:00+15с22896 0.0 101637
06:00+17ссв25785 0.0 1016141
09:00+22св34590 0.0 1017670
12:00+25всв35460 0.0 10161665
15:00+26всв34430 0.0 10161820
18:00+25вюв33560 0.0 1016736
21:00+18юв00790 0.0 101711
4 июля, пн
пн400:00+16ю11840 0.0 101711
03:00+15ююз11885 0.0 101811
06:00+18ю117999 0.0 101861
09:00+23ююв1160100 0.0 1018525
12:00+26юв1247100 0.0 10181583
15:00+27юв234353 0.0 10171810
18:00+26юв33546 0.0 1016614
21:00+20ю347513 0.0 101669